| time (UTC) | temp F | wind direction | speed MPH | gust MPH | rain 1hr in | rain 24hr in | rain mn in | humidity % | barometer mb |
| 20260508013003 | 93 | 225 | 4.0 | 10.0 | 0.00 | 0.00 | 0.00 | 7 | 1005.7 |
| 20260508011502 | 94 | 172 | 3.0 | 6.0 | 0.00 | 0.00 | 0.00 | 7 | 1005.6 |
| 20260508010001 | 94 | 155 | 4.0 | 9.0 | 0.00 | 0.00 | 0.00 | 7 | 1005.7 |
| 20260508004501 | 95 | 207 | 0.0 | 7.0 | 0.00 | 0.00 | 0.00 | 6 | 1005.6 |
| 20260508003100 | 95 | 222 | 1.0 | 6.0 | 0.00 | 0.00 | 0.00 | 6 | 1005.6 |
| 20260508001624 | 96 | 243 | 1.0 | 7.0 | 0.00 | 0.00 | 0.00 | 6 | 1005.7 |
| 20260508000100 | 96 | 170 | 0.0 | 2.0 | 0.00 | 0.00 | 0.00 | 6 | 1005.7 |
| 20260507234600 | 95 | 320 | 0.0 | 6.0 | 0.00 | 0.00 | 0.00 | 6 | 1005.8 |
| 20260507233056 | 97 | 328 | 2.0 | 6.0 | 0.00 | 0.00 | 0.00 | 6 | 1005.8 |
| 20260507231556 | 96 | 75 | 0.0 | 7.0 | 0.00 | 0.00 | 0.00 | 6 | 1005.9 |
| 20260507230053 | 97 | 60 | 0.0 | 5.0 | 0.00 | 0.00 | 0.00 | 6 | 1006.0 |
| 20260507224558 | 95 | 252 | 1.0 | 6.0 | 0.00 | 0.00 | 0.00 | 6 | 1006.2 |
| 20260507223050 | 95 | 356 | 3.0 | 8.0 | 0.00 | 0.00 | 0.00 | 7 | 1006.5 |
| 20260507221547 | 97 | 184 | 0.0 | 1.0 | 0.00 | 0.00 | 0.00 | 6 | 1006.6 |
| 20260507220048 | 95 | 347 | 3.0 | 7.0 | 0.00 | 0.00 | 0.00 | 7 | 1006.9 |
| 20260507214545 | 96 | 184 | 0.0 | 3.0 | 0.00 | 0.00 | 0.00 | 7 | 1007.1 |
| 20260507213043 | 95 | 253 | 4.0 | 9.0 | 0.00 | 0.00 | 0.00 | 7 | 1007.3 |
| 20260507211539 | 95 | 350 | 3.0 | 6.0 | 0.00 | 0.00 | 0.00 | 7 | 1007.6 |
| 20260507210036 | 95 | 156 | 1.0 | 4.0 | 0.00 | 0.00 | 0.00 | 7 | 1007.8 |
| 20260507204536 | 95 | 166 | 1.0 | 5.0 | 0.00 | 0.00 | 0.00 | 8 | 1008.0 |
| 20260507203034 | 95 | 22 | 3.0 | 6.0 | 0.00 | 0.00 | 0.00 | 7 | 1008.2 |
| 20260507201530 | 95 | 94 | 0.0 | 22.0 | 0.00 | 0.00 | 0.00 | 7 | 1008.5 |
| 20260507200028 | 95 | 23 | 0.0 | 19.0 | 0.00 | 0.00 | 0.00 | 8 | 1008.7 |
| 20260507194524 | 92 | 344 | 0.0 | 5.0 | 0.00 | 0.00 | 0.00 | 8 | 1009.0 |
| 20260507193025 | 93 | 340 | 0.0 | 5.0 | 0.00 | 0.00 | 0.00 | 8 | 1009.2 |
| 20260507191520 | 94 | 94 | 0.0 | 3.0 | 0.00 | 0.00 | 0.00 | 8 | 1009.5 |
| 20260507190019 | 92 | 117 | 0.0 | 6.0 | 0.00 | 0.00 | 0.00 | 9 | 1009.8 |
| 20260507184513 | 91 | 90 | 2.0 | 6.0 | 0.00 | 0.00 | 0.00 | 9 | 1010.0 |
| 20260507183009 | 91 | 84 | 1.0 | 7.0 | 0.00 | 0.00 | 0.00 | 9 | 1010.2 |
| 20260507181507 | 91 | 143 | 1.0 | 6.0 | 0.00 | 0.00 | 0.00 | 11 | 1010.3 |
| 20260507180005 | 89 | 172 | 1.0 | 5.0 | 0.00 | 0.00 | 0.00 | 12 | 1010.6 |
| 20260507174501 | 86 | 6 | 0.0 | 5.0 | 0.00 | 0.00 | 0.00 | 14 | 1010.7 |
| 20260507173058 | 87 | 322 | 1.0 | 5.0 | 0.00 | 0.00 | 0.00 | 15 | 1010.9 |
| 20260507171603 | 87 | 88 | 0.0 | 5.0 | 0.00 | 0.00 | 0.00 | 16 | 1011.0 |
| 20260507170055 | 87 | 225 | 0.0 | 4.0 | 0.00 | 0.00 | 0.00 | 15 | 1011.1 |
| 20260507164554 | 86 | 79 | 0.0 | 2.0 | 0.00 | 0.00 | 0.00 | 16 | 1011.2 |
| 20260507163055 | 85 | 103 | 0.0 | 3.0 | 0.00 | 0.00 | 0.00 | 17 | 1011.3 |
| 20260507161550 | 84 | 287 | 0.0 | 2.0 | 0.00 | 0.00 | 0.00 | 20 | 1011.4 |
| 20260507160045 | 80 | 360 | 0.0 | 2.0 | 0.00 | 0.00 | 0.00 | 22 | 1011.6 |
| 20260507154547 | 80 | 328 | 0.0 | 2.0 | 0.00 | 0.00 | 0.00 | 23 | 1011.7 |
| 20260507153048 | 79 | 33 | 0.0 | 3.0 | 0.00 | 0.00 | 0.00 | 26 | 1011.7 |
| 20260507151537 | 77 | 162 | 1.0 | 4.0 | 0.00 | 0.00 | 0.00 | 28 | 1011.8 |
| 20260507150039 | 77 | 276 | 1.0 | 6.0 | 0.00 | 0.00 | 0.00 | 28 | 1011.8 |
| 20260507144531 | 75 | 17 | 0.0 | 3.0 | 0.00 | 0.00 | 0.00 | 28 | 1011.8 |
| 20260507143034 | 74 | 19 | 0.0 | 3.0 | 0.00 | 0.00 | 0.00 | 27 | 1011.8 |
| 20260507141526 | 74 | 85 | 0.0 | 2.0 | 0.00 | 0.00 | 0.00 | 28 | 1011.6 |
| 20260507140024 | 73 | 78 | 0.0 | 1.0 | 0.00 | 0.00 | 0.00 | 29 | 1011.6 |
| 20260507134522 | 71 | 32 | 0.0 | 1.0 | 0.00 | 0.00 | 0.00 | 29 | 1011.5 |
| 20260507133020 | 70 | 6 | 0.0 | 6.0 | 0.00 | 0.00 | 0.00 | 30 | 1011.3 |
| 20260507131527 | 69 | 349 | 1.0 | 4.0 | 0.00 | 0.00 | 0.00 | 30 | 1011.1 |
| 20260507130019 | 68 | 8 | 1.0 | 5.0 | 0.00 | 0.00 | 0.00 | 31 | 1011.0 |
| 20260507124519 | 68 | 322 | 0.0 | 2.0 | 0.00 | 0.00 | 0.00 | 31 | 1011.0 |
| 20260507123018 | 68 | 360 | 0.0 | 2.0 | 0.00 | 0.00 | 0.00 | 31 | 1011.1 |
| 20260507121517 | 69 | 53 | 2.0 | 6.0 | 0.00 | 0.00 | 0.00 | 30 | 1011.2 |
| 20260507120032 | 68 | 39 | 2.0 | 6.0 | 0.00 | 0.00 | 0.00 | 31 | 1011.2 |
| 20260507114518 | 67 | 325 | 0.0 | 2.0 | 0.00 | 0.00 | 0.00 | 31 | 1011.1 |
| 20260507113014 | 67 | 11 | 0.0 | 1.0 | 0.00 | 0.00 | 0.00 | 31 | 1011.0 |
| 20260507111511 | 68 | 25 | 0.0 | 2.0 | 0.00 | 0.00 | 0.00 | 31 | 1011.0 |
| 20260507110010 | 68 | 15 | 0.0 | 2.0 | 0.00 | 0.00 | 0.00 | 31 | 1011.1 |
| 20260507104511 | 68 | 4 | 0.0 | 2.0 | 0.00 | 0.00 | 0.00 | 31 | 1011.2 |
| 20260507103008 | 68 | 15 | 0.0 | 2.0 | 0.00 | 0.00 | 0.00 | 31 | 1011.3 |
| 20260507101507 | 68 | 349 | 0.0 | 2.0 | 0.00 | 0.00 | 0.00 | 32 | 1011.4 |
| 20260507100007 | 68 | 19 | 0.0 | 1.0 | 0.00 | 0.00 | 0.00 | 32 | 1011.4 |
| 20260507094606 | 68 | 348 | 0.0 | 2.0 | 0.00 | 0.00 | 0.00 | 32 | 1011.7 |
| 20260507093001 | 69 | 39 | 0.0 | 0.0 | 0.00 | 0.00 | 0.00 | 31 | 1011.8 |
| 20260507091601 | 69 | 39 | 0.0 | 1.0 | 0.00 | 0.00 | 0.00 | 31 | 1011.8 |
| 20260507090100 | 69 | 27 | 0.0 | 1.0 | 0.00 | 0.00 | 0.00 | 31 | 1011.8 |
| 20260507084559 | 70 | 359 | 0.0 | 2.0 | 0.00 | 0.00 | 0.00 | 32 | 1011.9 |
| 20260507083158 | 70 | 5 | 0.0 | 2.0 | 0.00 | 0.00 | 0.00 | 31 | 1011.9 |
| 20260507081603 | 69 | 348 | 0.0 | 2.0 | 0.00 | 0.00 | 0.00 | 33 | 1012.0 |
| 20260507080057 | 69 | 4 | 0.0 | 0.0 | 0.00 | 0.00 | 0.00 | 35 | 1012.1 |
| 20260507074607 | 69 | 4 | 0.0 | 0.0 | 0.00 | 0.00 | 0.00 | 35 | 1012.2 |
| 20260507073050 | 70 | 4 | 0.0 | 0.0 | 0.00 | 0.00 | 0.00 | 31 | 1012.2 |
| 20260507071545 | 72 | 4 | 0.0 | 0.0 | 0.00 | 0.00 | 0.00 | 29 | 1012.1 |
| 20260507070044 | 72 | 4 | 0.0 | 0.0 | 0.00 | 0.00 | 0.00 | 27 | 1012.1 |
| 20260507064543 | 73 | 4 | 0.0 | 0.0 | 0.00 | 0.00 | 0.00 | 26 | 1012.0 |
| 20260507063042 | 74 | 356 | 0.0 | 2.0 | 0.00 | 0.00 | 0.00 | 26 | 1011.8 |
| 20260507061542 | 74 | 350 | 0.0 | 1.0 | 0.00 | 0.00 | 0.00 | 25 | 1011.9 |
| 20260507060041 | 74 | 352 | 0.0 | 2.0 | 0.00 | 0.00 | 0.00 | 25 | 1012.0 |
| 20260507054559 | 75 | 297 | 0.0 | 1.0 | 0.00 | 0.00 | 0.00 | 25 | 1011.9 |
| 20260507053043 | 75 | 307 | 0.0 | 1.0 | 0.00 | 0.00 | 0.00 | 25 | 1012.0 |
| 20260507051540 | 76 | 314 | 0.0 | 1.0 | 0.00 | 0.00 | 0.00 | 25 | 1012.0 |
| 20260507050041 | 76 | 309 | 0.0 | 1.0 | 0.00 | 0.00 | 0.00 | 24 | 1011.9 |
| 20260507044547 | 76 | 302 | 0.0 | 0.0 | 0.00 | 0.00 | 0.00 | 24 | 1011.8 |
| 20260507043038 | 75 | 243 | 0.0 | 0.0 | 0.00 | 0.00 | 0.00 | 25 | 1011.7 |
| 20260507041541 | 75 | 243 | 0.0 | 0.0 | 0.00 | 0.00 | 0.00 | 24 | 1011.5 |
| 20260507040039 | 77 | 243 | 0.0 | 1.0 | 0.00 | 0.00 | 0.00 | 23 | 1011.4 |
| 20260507034536 | 77 | 249 | 0.0 | 1.0 | 0.00 | 0.00 | 0.00 | 22 | 1011.2 |
| 20260507033037 | 78 | 235 | 0.0 | 1.0 | 0.00 | 0.00 | 0.00 | 22 | 1011.1 |
| 20260507031541 | 78 | 235 | 0.0 | 1.0 | 0.00 | 0.00 | 0.00 | 21 | 1010.9 |
| 20260507030046 | 79 | 252 | 0.0 | 4.0 | 0.00 | 0.00 | 0.00 | 20 | 1010.7 |
| 20260507024541 | 79 | 225 | 0.0 | 3.0 | 0.00 | 0.00 | 0.00 | 20 | 1010.6 |
| 20260507023034 | 80 | 239 | 0.0 | 2.0 | 0.00 | 0.00 | 0.00 | 19 | 1010.4 |
| 20260507021535 | 80 | 215 | 0.0 | 2.0 | 0.00 | 0.00 | 0.00 | 19 | 1010.2 |
| 20260507020033 | 82 | 294 | 0.0 | 2.0 | 0.00 | 0.00 | 0.00 | 18 | 1010.2 |
| 20260507014544 | 83 | 340 | 0.0 | 2.0 | 0.00 | 0.00 | 0.00 | 18 | 1010.1 |